Showing default

CENTISPACE-1 S9, 62578

Orbit data source: Space-Track

CENTISPACE-1 S9, 62578 is a payload satellite owned by Centispace (CN) in LEO that was launched on Mon, 13 Jan 2025 UTC via a JIELONG-3 launch vehicle from the Yellow Sea Launch Area, China (YSLA). Payload-class satellites include a variety of spacecraft equipped with specific instruments for various scientific and technological missions. These include communications satellites like Starlink; space stations such as the ISS; scientific satellites like the Hubble; Earth observation satellites from companies like Planet Labs, Umbra, and HawkEye 360; GPS; miniature CubeSats for education and research; and military/defense satellites.

Loading next visibility...
Identifier
62578, 2025-007D
Orbit
LEO
Last TLE update
2 days ago
Origin
Manufacturer
DFH Shenzhen
Mission
Operational Commercial Nav/Com
Bus & Motor
WK01, Unknown motor
Mass
140 kg wet, 140 kg dry
Launch date (UTC)
2025-01-13 (6 months ago)
Launch vehicle
JIELONG-3
Launch site
Yellow Sea Launch Area, China (YSLA)
Object type
Payload
Rocket body
Debris
Shape & HBR
Box + 2 Pan, 2 m
Radar Cross Section
0.833 m², Large (>1 m²)

Expand to show TLE details & history

TLE from 2 days ago
0 CENTISPACE-1 S9
1 62578U 25007D   25187.82951512  .00001044  00000-0  19050-3 0  9995
2 62578  54.9829 134.3133 0007419 309.6767  50.3577 14.73576891 25795
Epoch: 2025-07-06T19:54Z
TLE epoch observation values (Epoch: 2025-07-06T19:54:30.106Z)
Latitude
-0°
Longitude
-89.35973°
Altitude
647.415 km
Speed
7.537 km/s
True Right ascension
08h 57m 15s
True Declination
0° 00' 00"
Sunlit
Object was in daylight at epoch
Visualization orbit readout
Latitude
-43.62027°
Longitude
-141.14703°
Altitude
659.429 km
Speed
7.53 km/s
Apparent Right ascension
06h 44m 47s
Apparent Declination
-43° 17' 19"
Sunlit
Object is in daylight
Visualization observer readout
Local Sidereal Time
20:02:42
Azimuth
109.418° ESE
Elevation
-75.086°
Doppler factor
1
Orbital elements
Apogee altitude
654.852 km
Perigee altitude
644.425 km
Semi-major axis
7,027.775 km
Eccentricity
0.00074
Inclination
54.9829°
RAAN
134.3133°
Arg. of periapsis
309.6767°
True anomaly
Unknown
Mean anomaly
50.3577°
Eccentric anomaly
Unknown
Mean motion
3.68397 °/min
Orbital period
97.72 mins
BSTAR
0.0001905
Loading maneuver chart data...
Loading SW <> Apogee altitude chart data...
Loading historical data...
Loading historical data...
Loading historical data...
Loading historical data...
Loading historical data...
Loading historical data...
Loading historical data...

CENTISPACE-1 S9 Visibility forecast

Observer location: undefined°, undefined°

Span
Click to sort rows by Start time (UTC) header in descending order
Start Az.
Max El. time (UTC)
Max El. Az.
Max El.
End time (UTC)
End Az.
8 mins2025-07-09 21:18:08.413Z188.029° SSW2025-07-09 21:22:08.413Z124.82° SE27.47°2025-07-09 21:26:08.413Z65.595° ENE
7 mins2025-07-09 23:00:08.413Z257.781° W2025-07-09 23:03:08.413Z309.658° NW33.727°2025-07-09 23:07:08.413Z32.221° NE
6 mins2025-07-10 04:10:08.413Z344.125° N2025-07-10 04:12:08.413Z20.972° NNE26.308°2025-07-10 04:16:08.413Z88.636° E
7 mins2025-07-10 05:51:08.413Z299.372° NW2025-07-10 05:54:08.413Z239.251° WSW38.55°2025-07-10 05:58:08.413Z154.713° SSE
|